This is the latest recevied weather packets stored in our database for station/object VK4AB-13. If no packets are shown the sender has not sent any weather packets the latest 10 day(s).
| Time | Temp. | Humidity | Pressure | Rain* | Wind** | Luminosity | Snow |
|---|---|---|---|---|---|---|---|
| 1778190822 | 11.67° C | 55% | 1020.6 hPa | 0 mm | - | 288 W/m² | - |
| 1778190522 | 11.11° C | 56% | 1020.6 hPa | 0 mm | - | 271 W/m² | - |
| 1778190222 | 11.11° C | 56% | 1020.5 hPa | 0 mm | - | 255 W/m² | - |
| 1778189922 | 11.11° C | 56% | 1020.4 hPa | 0 mm | - | 237 W/m² | - |
| 1778189622 | 10.56° C | 57% | 1020.4 hPa | 0 mm | - | 225 W/m² | - |
| 1778189322 | 10.56° C | 59% | 1020.4 hPa | 0 mm | - | 204 W/m² | - |
| 1778189022 | 10° C | 59% | 1020.4 hPa | 0 mm | - | 183 W/m² | - |
| 1778188722 | 10° C | 60% | 1020.6 hPa | 0 mm | - | 160 W/m² | - |
| 1778188422 | 9.44° C | 59% | 1020.5 hPa | 0 mm | - | 137 W/m² | - |
| 1778188122 | 9.44° C | 60% | 1020.5 hPa | 0 mm | - | 116 W/m² | - |
| 1778187822 | 9.44° C | 59% | 1020.3 hPa | 0 mm | - | 62 W/m² | - |
| 1778187522 | 9.44° C | 60% | 1020.2 hPa | 0 mm | - | 19 W/m² | - |
| 1778187222 | 9.44° C | 60% | 1020 hPa | 0 mm | - | 18 W/m² | - |
| 1778186922 | 9.44° C | 60% | 1020 hPa | 0 mm | - | 16 W/m² | - |
| 1778186622 | 9.44° C | 60% | 1020.1 hPa | 0 mm | - | 14 W/m² | - |
| 1778186322 | 9.44° C | 61% | 1019.9 hPa | 0 mm | - | 11 W/m² | - |
| 1778186022 | 9.44° C | 61% | 1019.9 hPa | 0 mm | - | 11 W/m² | - |
| 1778185722 | 9.44° C | 61% | 1020 hPa | 0 mm | - | 9 W/m² | - |
| 1778185422 | 9.44° C | 61% | 1019.9 hPa | 0 mm | - | 5 W/m² | - |
| 1778185122 | 9.44° C | 61% | 1019.8 hPa | 0 mm | - | 0 W/m² | - |
| 1778184822 | 10° C | 61% | 1019.8 hPa | 0 mm | - | 0 W/m² | - |
| 1778184522 | 10° C | 61% | 1019.9 hPa | 0 mm | - | 0 W/m² | - |
| 1778184222 | 10° C | 61% | 1019.7 hPa | 0 mm | - | 0 W/m² | - |
| 1778183922 | 10° C | 61% | 1019.6 hPa | 0 mm | - | 0 W/m² | - |
| 1778183622 | 10° C | 61% | 1019.7 hPa | 0 mm | - | 0 W/m² | - |
* Rain latest hour (hover to see other rain measurements)
** Current wind speed in m/s (hover to see current wind gust speed)